Location: Bouillancy
(49.1149°N, 2.9308°E)
Time: 22:45:04
(UTC+00:00)

Okean 1 Rocket - Pass Details

Date: 30 September 2020
Orbit: 605 x 635 km, 82.5° (Epoch: 25 October)

Event Time Altitude Azimuth Distance (km) Brightness Sun altitude
Rises 18:25:30 0° 179° (S) 2,921 6.4 -10.2°
Reaches altitude 10° 18:27:45 10° 176° (S) 2,018 5.6 -10.5°
Maximum altitude 18:32:10 63° 96° (E) 715 3.1 -11.3°
Drops below altitude 10° 18:36:37 10° 16° (NNE) 2,027 5.6 -12.0°
Sets 18:38:52 0° 13° (NNE) 2,936 6.5 -12.3°
